Flag for Germany Past Weather in Frankfurt an der Oder, Brandenburg, Germany — Yesterday and Last 2 Weeks

Now
65 °F

Clear.


Feels Like: 65 °F
Forecast: 65 / 81 °F
Wind: 2 mph from Northeast

Location: Gorzow Wlkp

Current Time: Jul 25, 2016 at 2:21:47 AM

Latest Report: Jul 25, 2016 at 1:00 AM


Visibility: 7 mi

Pressure: 30.08 "Hg

Humidity: 88%

Dew Point: 62 °F

Location of Frankfurt an der OderLocation

Past Weather in Frankfurt an der Oder — Graph

°F

Frankfurt an der Oder Temperature Yesterday

Maximum temperature yesterday: 77 °F (at 5:00 PM)
Minimum temperature yesterday: 59 °F (at 3:00 AM)
Average temperature yesterday: 67 °F

High & Low Weather Summary for the Past Weeks

 TemperatureHumidityPressure
High85 °F (Jul 11, 1:00 PM)97% (Jul 17, 7:00 AM)30.24 "Hg (Jul 17, 7:00 AM)
Low52 °F (Jul 16, 5:00 AM)26% (Jul 22, 3:00 PM)29.73 "Hg (Jul 11, 5:00 AM)
Average67 °F69%30.00 "Hg
* Reported Jul 10 2:00 AM — Jul 25 1:00 AM, Frankfurt an der Oder, Weather by CustomWeather, © 2016

Note: Actual official high and low records may vary slightly from our data, if they occured in-between our weather recording intervals... More about our weather records

Advertising

Frankfurt an der Oder Weather History for the Previous 24 Hours

Scroll right to see more
 ConditionsComfort  
Time TempWeatherWind HumidityBarometerVisibility
1:00 AM
Mon, Jul 25
65 °FClear.2 mph88%30.08 "Hg7 mi
12:00 AM67 °FClear.1 mph83%30.09 "Hg9 mi
11:00 PM
Sun, Jul 24
68 °FClear.1 mph80%30.09 "Hg9 mi
10:00 PM70 °FPassing clouds.1 mph76%30.08 "Hg9 mi
9:00 PM73 °FPassing clouds.1 mph70%30.08 "Hg12 mi
8:00 PM76 °FPassing clouds.1 mph61%30.07 "Hg12 mi
7:00 PM76 °FPassing clouds.1 mph61%30.08 "Hg9 mi
6:00 PM76 °FScattered clouds.2 mph59%30.08 "Hg9 mi
5:00 PM77 °FPartly sunny.2 mph60%30.09 "Hg9 mi
4:00 PM75 °FPartly sunny.2 mph61%30.10 "Hg9 mi
3:00 PM74 °FPartly sunny.2 mph63%30.11 "Hg9 mi
2:00 PM72 °FPartly sunny.1 mph66%30.12 "Hg7 mi
1:00 PM71 °FOvercast.1 mph71%30.12 "Hg6 mi
12:00 PM70 °FFog.1 mph70%30.13 "Hg5 mi
11:00 AM68 °FFog.1 mph77%30.12 "Hg4 mi
10:00 AM66 °FFog.1 mph83%30.12 "Hg4 mi
9:00 AM64 °FFog.1 mph86%30.12 "Hg3 mi
8:00 AM63 °FFog.1 mph91%30.12 "Hg3 mi
7:00 AM61 °FFog.1 mph95%30.12 "Hg3 mi
6:00 AM59 °FFog.No wind94%30.12 "Hg3 mi
5:00 AM59 °FFog.1 mph94%30.11 "Hg4 mi
4:00 AM60 °FFog.2 mph93%30.11 "Hg4 mi
3:00 AM59 °FFog.2 mph94%30.12 "Hg4 mi
2:00 AM60 °FFog.2 mph93%30.12 "Hg4 mi
Weather by CustomWeather, © 2016

See weather overviewHow to use our weather pages